DateTimeUTC,F1_A11,F1_S11,BsB_S11,BsG_S11,BsR_S11,BbsB_S11,BbsG_S11,BbsR_S11,BaB_A11,BaG_A11,BaR_A11,Tu_S11,T_S11,Uu_S11,U_S11,P_S11,T1_A11
2021-02-13T15:00:00Z,00000200,21000000,,,,,,,0000.16,-000.08,0000.01,16.5,22.6,,00.0,0655.9,31.0
2021-02-13T15:01:00Z,00000200,21000000,,,,,,,0000.11,0000.37,0000.26,16.5,22.6,,00.0,0655.9,31.0
2021-02-13T15:02:00Z,00000200,21000000,,,,,,,0000.69,0000.41,0000.52,16.5,22.7,,00.0,0655.8,31.0
2021-02-13T15:03:00Z,00000200,61000000,,,,,,,0001.95,0001.53,0001.19,16.5,22.7,,00.0,0655.8,31.0
2021-02-13T15:04:00Z,00000200,41000000,0000.48,0000.32,0000.30,-000.21,0000.15,-000.09,0000.48,0000.28,0000.26,16.6,22.5,01.0,00.7,0656.7,31.0
2021-02-13T15:05:00Z,00000200,01000000,0001.03,0000.08,0000.07,0000.40,0000.05,0000.11,0000.05,0000.26,0000.10,16.6,22.5,01.1,00.7,0656.8,31.0
2021-02-13T15:06:00Z,00000200,01000000,0000.77,0000.25,0000.51,0000.21,-000.05,-000.09,0000.13,-000.14,0000.09,16.7,22.5,01.0,00.7,0656.8,31.0
2021-02-13T15:07:00Z,00000200,01000000,-000.03,0000.61,0000.41,0000.03,-000.05,0000.30,0000.04,0000.59,-000.01,16.8,22.5,00.9,00.6,0656.8,31.0
2021-02-13T15:08:00Z,00000200,01000000,0000.13,0000.18,0000.25,0000.10,0000.18,0000.11,0000.97,0000.56,0000.76,16.8,22.5,01.1,00.8,0656.7,31.0
2021-02-13T15:09:00Z,00000200,01000000,0000.55,0000.03,0000.22,0000.22,0000.00,0000.00,0000.62,0000.89,0000.43,16.9,22.6,01.3,00.9,0656.7,31.0
2021-02-13T15:10:00Z,00000200,01000000,0000.80,0000.25,-000.08,0000.15,0000.33,-000.17,0000.37,0000.10,-000.07,16.9,22.6,01.4,01.0,0656.7,31.0
2021-02-13T15:11:00Z,00000200,01000000,0000.59,-000.03,0000.41,-000.03,-000.05,0000.26,0000.02,0000.17,0000.31,16.9,22.6,01.4,01.0,0656.7,31.0
2021-02-13T15:12:00Z,00000200,01000000,-000.08,0000.12,0000.34,0000.51,-000.18,0000.26,0000.32,0000.23,-000.06,16.9,22.6,01.3,00.9,0656.7,31.0
2021-02-13T15:13:00Z,00000200,01000000,0000.64,0000.37,0000.53,-000.33,-000.07,-000.07,-000.36,-000.52,-000.27,16.9,22.6,01.4,01.0,0656.7,31.0
2021-02-13T15:14:00Z,00000200,01000000,0000.70,0000.31,0000.30,0000.33,-000.00,0000.15,-000.02,0000.08,0000.43,16.9,22.6,01.3,00.9,0656.7,31.0
2021-02-13T15:15:00Z,00000200,01000000,0001.18,0000.39,-000.24,-000.41,0000.03,0000.18,-000.14,-000.49,-000.42,16.8,22.6,01.3,00.9,0656.7,31.0
2021-02-13T15:16:00Z,00000200,01000000,0000.86,0000.39,0000.35,-000.65,-000.07,-000.19,-000.02,0000.42,-000.04,16.8,22.6,01.2,00.9,0656.8,31.0
2021-02-13T15:17:00Z,00000200,01000000,0000.75,0000.27,0000.36,0000.56,-000.15,-000.10,-000.05,-000.60,0000.03,16.8,22.6,01.1,00.8,0656.8,31.0
2021-02-13T15:18:00Z,00000200,01000000,-000.19,0000.38,0000.24,0000.05,-000.11,-000.03,-000.15,0000.15,0000.10,16.8,22.6,01.1,00.7,0656.8,31.0
2021-02-13T15:19:00Z,00000200,01000000,0000.70,0000.42,0000.52,0000.32,-000.19,-000.08,0000.04,0000.16,-000.21,16.8,22.6,00.9,00.6,0656.8,31.0
2021-02-13T15:20:00Z,00000200,01000000,0000.47,0000.20,0000.79,0000.05,-000.24,0000.28,-000.08,-000.13,-000.09,16.8,22.6,00.8,00.5,0656.8,31.0
2021-02-13T15:21:00Z,00000200,01000000,0001.10,0000.30,0000.44,-000.04,-000.07,0000.14,0000.02,0000.10,0000.27,16.8,22.6,00.8,00.6,0656.8,31.0
2021-02-13T15:22:00Z,00000200,01000000,0001.16,0000.38,0000.36,0000.39,-000.04,0000.20,0000.31,0000.00,-000.24,16.7,22.6,00.7,00.5,0656.8,31.0
2021-02-13T15:23:00Z,00000200,01000000,0000.79,0000.22,0000.64,-000.28,-000.19,0000.04,-000.05,0000.07,0000.25,16.7,22.6,00.8,00.5,0656.8,31.0
2021-02-13T15:24:00Z,00000200,01000000,-000.12,0000.16,0000.36,0000.00,-000.04,0000.19,0000.28,0000.48,0000.05,16.7,22.6,00.7,00.5,0656.8,31.0
2021-02-13T15:25:00Z,00000200,01000000,0000.65,0000.01,0000.20,0000.50,-000.01,0000.17,-000.25,-000.17,0000.01,16.7,22.6,00.8,00.5,0656.8,31.0
2021-02-13T15:26:00Z,00000200,01000000,0000.05,0000.51,0000.18,-000.04,-000.12,0000.32,0000.42,-000.04,0000.27,16.7,22.6,00.8,00.5,0656.8,31.0
2021-02-13T15:27:00Z,00000200,01000000,0000.11,0000.23,0000.49,-000.42,-000.15,0000.23,-000.06,0000.08,-000.38,16.7,22.6,00.6,00.4,0656.8,31.0
2021-02-13T15:28:00Z,00000200,01000000,0001.08,0000.30,0000.56,-000.02,0000.12,0000.17,-000.01,-000.05,0000.02,16.7,22.6,00.6,00.4,0656.8,31.0
2021-02-13T15:29:00Z,00000200,01000000,0000.69,0000.02,0000.49,0000.71,-000.21,0000.36,-000.15,0000.14,0000.10,16.7,22.6,00.5,00.4,0656.8,31.0
2021-02-13T15:30:00Z,00000200,01000000,0000.84,0000.05,0000.20,-000.15,0000.07,-000.38,-000.41,0000.03,-000.13,16.6,22.5,00.5,00.4,0656.8,31.0
2021-02-13T15:31:00Z,00000200,01000000,0000.19,0000.23,0000.35,-000.01,0000.16,-000.26,0000.12,-000.54,-000.16,16.6,22.5,00.5,00.3,0656.7,31.0
2021-02-13T15:32:00Z,00000200,01000000,0000.83,0000.21,0000.32,0000.03,-000.16,0000.23,-000.25,-000.14,-000.09,16.6,22.5,00.4,00.2,0656.8,31.0
2021-02-13T15:33:00Z,00000200,01000000,0001.46,0000.29,0000.27,-000.25,0000.15,0000.04,-000.09,-000.23,-000.13,16.6,22.5,00.2,00.2,0656.7,31.0
2021-02-13T15:34:00Z,00000200,01000000,0000.36,0000.54,0000.19,0000.83,0000.11,-000.12,-000.21,-000.19,0000.12,16.5,22.5,00.2,00.1,0656.7,31.0
2021-02-13T15:35:00Z,00000200,01000000,0000.49,0000.23,0000.11,-000.24,-000.09,0000.07,0000.30,0000.31,-000.05,16.5,22.5,00.1,00.1,0656.7,31.0
2021-02-13T15:36:00Z,00000200,01000000,0000.60,-000.00,0000.38,0000.20,-000.07,0000.05,-000.03,0000.01,0000.09,16.6,22.5,00.1,00.1,0656.7,31.0
2021-02-13T15:37:00Z,00000200,01000000,0001.18,0000.31,0000.25,-000.01,0000.17,0000.24,0000.05,0000.02,-000.10,16.7,22.5,00.1,00.1,0656.7,31.0
2021-02-13T15:38:00Z,00000200,01000000,0000.45,0000.36,0000.39,0000.33,-000.15,0000.22,-000.05,-000.25,0000.27,16.8,22.6,00.1,00.1,0656.7,31.0
2021-02-13T15:39:00Z,00000200,01000000,0000.47,0000.16,0000.32,0000.44,-000.02,0000.01,-000.06,0000.24,-000.38,16.9,22.7,00.1,00.0,0656.7,31.0
2021-02-13T15:40:00Z,00000200,01000000,0001.34,0000.10,0000.35,0000.48,-000.05,0000.01,0000.00,-000.03,0000.56,16.9,22.7,00.1,00.0,0656.7,31.0
2021-02-13T15:41:00Z,00000200,01000000,0000.57,0000.44,0000.39,0000.25,0000.09,0000.03,-000.09,0000.17,-000.08,16.9,22.7,00.0,00.0,0656.7,31.0
2021-02-13T15:42:00Z,00000200,01000000,0000.59,0000.46,0000.22,-000.49,-000.24,0000.11,0000.20,0000.08,-000.30,16.9,22.7,00.0,00.0,0656.7,31.0
2021-02-13T15:43:00Z,00000200,01000000,0001.16,0000.33,0000.19,0000.15,0000.00,-000.08,0000.15,0000.14,0000.43,16.9,22.7,00.0,00.0,0656.7,31.0
2021-02-13T15:44:00Z,00000200,01000000,0000.39,0000.16,0000.38,0000.12,0000.14,-000.13,0000.09,-000.09,-000.17,16.9,22.7,00.1,00.0,0656.6,31.0
2021-02-13T15:45:00Z,00000200,01000000,0000.35,0000.54,0000.49,0000.23,0000.27,0000.08,-000.30,0000.39,-000.22,16.9,22.7,00.0,00.0,0656.7,31.0
2021-02-13T15:46:00Z,00000200,01000000,0001.31,0000.07,0000.39,-000.25,0000.06,-000.25,0000.33,-000.29,0000.22,16.8,22.7,00.0,00.0,0656.7,31.0
2021-02-13T15:47:00Z,00000200,01000000,0000.25,0000.23,0000.26,0000.35,0000.04,0000.02,0000.26,0000.41,-000.04,16.8,22.7,00.1,00.0,0656.6,31.0
2021-02-13T15:48:00Z,00000200,01000000,0000.02,0000.24,0000.63,-000.13,0000.01,0000.17,-000.21,0000.09,0000.29,16.8,22.7,00.0,00.0,0656.6,31.0
2021-02-13T15:49:00Z,00000200,01000000,0000.24,0000.24,0000.16,0000.44,0000.13,0000.27,0000.44,-000.28,0000.20,16.8,22.7,00.0,00.0,0656.6,31.0
2021-02-13T15:50:00Z,00000200,01000000,0000.24,0000.47,-000.06,-000.02,0000.08,-000.09,0000.22,0000.60,0000.21,16.8,22.7,00.1,00.0,0656.6,31.0
2021-02-13T15:51:00Z,00000200,01000000,0000.41,0000.27,0000.24,-000.19,0000.02,0000.10,0000.32,0000.09,0000.23,16.8,22.7,00.0,00.0,0656.6,31.0
2021-02-13T15:52:00Z,00000200,01000000,0000.31,0000.07,0000.38,-000.14,-000.00,-000.06,-000.22,0000.33,0000.03,16.9,22.7,00.0,00.0,0656.6,31.0
2021-02-13T15:53:00Z,00000200,01000000,0000.70,0000.12,0000.01,-000.46,0000.03,-000.45,0000.28,0000.08,0000.14,16.9,22.7,00.0,00.0,0656.6,31.0
2021-02-13T15:54:00Z,00000200,01000000,0001.06,0000.20,0000.58,-000.01,-000.19,0000.20,0000.34,0000.10,0000.30,16.9,22.8,00.0,00.0,0656.6,31.0
2021-02-13T15:55:00Z,00000200,01000000,0000.75,0000.51,0000.47,0000.10,-000.05,0000.30,-000.21,0000.10,-000.17,16.9,22.8,00.0,00.0,0656.6,31.0
2021-02-13T15:56:00Z,00000200,01000000,0000.34,0000.34,0000.62,0000.56,-000.09,-000.10,0000.07,-000.32,-000.00,16.9,22.8,00.0,00.0,0656.7,31.0
2021-02-13T15:57:00Z,00000200,41000000,,,,,,,0001.26,0001.14,0000.73,17.0,22.8,,00.0,0656.6,31.0
2021-02-13T15:58:00Z,00000200,61000000,,,,,,,-000.69,-000.60,-000.47,16.6,22.9,,00.0,0655.7,31.0
2021-02-13T15:59:00Z,00000200,21000000,,,,,,,-000.33,0000.05,0000.08,16.6,23.0,,00.0,0655.7,31.0
